#timestamp,LO_Frequency,Hit,StdDev 
1678489215.2,286047000.8,N
1678489235.0,286047001.1,N
1678489235.9,286047001.1,N
1678489255.8,286047000.7,N
1678489275.6,286046999.8,N
1678489295.4,286046998.6,N
1678489315.3,286047000.0,N
1678489335.1,286047001.3,N
1678489355.8,286047004.2,N
1678489375.7,286046998.3,N
1678489395.5,286046998.3,N
1678489415.4,286047002.9,N
1678489435.2,286047002.5,N
1678489455.0,286047002.7,N
1678489455.9,286047002.7,N
1678489475.8,286047000.8,N
1678489495.6,286046997.6,N
1678489515.4,286047001.1,N
1678489535.3,286046998.1,N
1678489555.1,286047003.8,N
1678489575.9,286047002.8,N
1678489595.7,286047002.6,N
1678489615.5,286046998.6,N
1678489635.4,286047000.8,N
1678489655.2,286046998.5,N
1678489675.0,286047004.0,N
1678489676.0,286047004.0,N
1678489695.8,286047002.2,N
1678489715.6,286046995.5,N
1678489735.5,286047002.7,N
1678489755.3,286047000.9,N
1678489775.1,286046999.8,N
1678489795.9,286047002.0,N
1678489815.7,286047002.4,N
1678489835.6,286047001.7,N
1678489855.4,286047004.4,N
1678489875.2,286047005.7,N
1678489895.1,286047003.9,N
1678489896.0,286047003.9,N
1678489915.8,286046998.2,N
1678489935.6,286047001.1,N
1678489955.5,286047001.4,N
1678489975.3,286047000.2,N
1678489995.2,286047000.9,N
1678490015.9,286047002.0,N
1678490035.7,286047002.5,N
1678490055.6,286047004.3,N
1678490075.4,286047000.6,N
1678490095.2,286047004.2,N
1678490115.1,286046998.2,N
1678490116.0,286046998.2,N
1678490135.8,286046998.3,N
1678490155.7,286047000.9,N
1678490175.5,286046999.7,N
1678490195.3,286047001.6,N
1678490215.2,286047003.0,N
1678490235.0,286046998.9,N
1678490235.9,286046998.9,N
1678490255.8,286046999.4,N
1678490275.6,286047001.9,N
1678490295.4,286047002.7,N
1678490315.3,286047001.6,N
1678490335.1,286047002.7,N
1678490355.8,286047002.6,N
1678490375.7,286047000.8,N
1678490395.5,286047000.4,N
1678490415.3,286046998.5,N
1678490435.2,286046998.9,N
1678490455.0,286046999.0,N
1678490455.9,286046999.0,N
1678490475.8,286047000.5,N
1678490495.6,286046998.5,N
1678490515.4,286046998.8,N
1678490535.3,286046998.7,N
1678490555.1,286046997.0,N
1678490575.9,286046997.1,N
1678490595.7,286046999.4,N
1678490615.5,286046989.6,Y
1678490635.4,286046989.2,P
1678490655.2,286046989.7,N
1678490675.0,286046988.6,N
1678490675.9,286046988.6,N
1678490695.8,286046991.2,N
1678490715.6,286046989.5,N
1678490735.5,286046999.3,N
1678490755.3,286046999.4,N
1678490775.1,286046998.5,N
1678490795.9,286046998.9,N
1678490815.7,286046997.4,N
1678490835.5,286047001.2,N
1678490855.4,286047002.7,N
1678490875.2,286047000.6,N
1678490895.1,286046998.2,N
1678490896.0,286046998.2,N
1678490915.8,286046999.0,N
1678490935.6,286047000.7,N
1678490955.5,286047000.4,N
1678490975.3,286047001.2,N
1678490995.1,286047001.2,N
1678491015.9,286046998.2,N
1678491035.7,286046998.1,N
1678491055.6,286046998.4,N
1678491075.4,286047002.5,N
1678491095.2,286046999.0,N
1678491115.1,286046998.9,N
1678491116.0,286046998.9,N
1678491135.8,286046997.7,N
1678491155.6,286046995.3,N
1678491175.5,286046996.5,N
1678491195.3,286046996.6,N
1678491215.2,286046998.1,N
1678491235.9,286046997.0,N
1678491255.7,286046999.2,N
1678491275.6,286046998.9,N
1678491295.4,286046998.6,N
1678491315.2,286046999.0,N
1678491335.1,286046996.7,N
1678491336.0,286046996.7,N
1678491355.8,286046995.1,N
1678491375.7,286046998.9,N
1678491395.5,286046999.5,N
1678491415.3,286047000.7,N
1678491435.2,286047001.7,N
1678491455.0,286047001.6,N
1678491455.9,286047001.6,N
1678491475.8,286046999.3,N
1678491495.6,286046997.3,N
1678491515.4,286046999.2,N
1678491535.3,286046997.3,N
1678491555.1,286046999.2,N
1678491575.8,286046998.2,N
1678491595.7,286046998.8,N
1678491615.5,286047000.8,N
1678491635.4,286047001.1,N
1678491655.2,286046999.1,N
1678491675.0,286046997.5,N
1678491675.9,286046997.5,N
1678491695.8,286046996.5,N
1678491715.6,286046997.6,N
1678491735.5,286046999.6,N
1678491755.3,286046995.6,N
1678491775.1,286046998.0,N
1678491795.9,286046997.5,N
1678491815.7,286046995.3,N
1678491835.5,286046996.3,N
1678491855.4,286046998.0,N
1678491875.2,286046996.9,N
1678491895.0,286046995.5,N
1678491895.9,286046995.5,N
1678491915.8,286046996.5,N
1678491935.6,286046997.8,N
1678491955.5,286046995.7,N
1678491975.3,286046998.6,N
1678491995.1,286046997.3,N
1678492015.9,286046996.1,N
1678492035.7,286046997.1,N
1678492055.5,286046994.3,Y
1678492075.4,286046996.5,P
1678492095.2,286046999.0,N
1678492115.1,286046998.1,N
1678492116.0,286046998.1,N
1678492135.8,286047000.3,N
1678492155.6,286047000.0,N
1678492175.5,286046998.3,N
1678492195.3,286046996.5,Y
1678492215.2,286046998.5,P
1678492235.9,286047000.4,P
1678492255.7,286047002.5,N
1678492275.6,286047001.2,N
1678492295.4,286047000.5,N
1678492315.2,286047000.5,N
1678492335.1,286046998.6,N
1678492336.0,286046998.6,N
1678492355.8,286047000.2,N
1678492375.6,286046998.1,N
1678492395.5,286046998.2,N
1678492415.3,286046998.5,N
1678492435.2,286046999.8,N
1678492455.9,286047001.0,N
1678492475.7,286046999.5,N
1678492495.6,286047001.8,N
1678492515.4,286046998.3,N
1678492535.2,286047001.0,N
1678492555.1,286047002.5,N
1678492556.0,286047002.5,N
1678492575.8,286046999.7,N
1678492595.7,286047001.6,N
1678492615.5,286046999.9,N
1678492635.3,286047000.8,N
1678492655.2,286047001.2,N
1678492675.0,286047000.4,N
1678492675.9,286047000.4,N
1678492695.7,286047000.7,N
1678492715.6,286046998.9,N
1678492735.4,286047001.7,N
1678492755.3,286047000.1,N
1678492775.1,286047002.8,N
1678492776.0,286047002.8,N
1678492795.8,286047003.9,N
